#timestamp,LO_Frequency,Hit,StdDev 
1635721215.8,286046998.1,N
1635721235.7,286046999.7,N
1635721255.5,286047002.5,N
1635721275.3,286047003.9,N
1635721295.2,286047001.4,N
1635721315.0,286047002.0,N
1635721315.9,286047002.0,N
1635721335.7,286047002.7,N
1635721355.6,286047000.0,N
1635721375.4,286047000.7,N
1635721395.2,286047004.0,N
1635721415.1,286047001.3,N
1635721416.0,286047001.3,N
1635721435.8,286046999.7,N
1635721455.6,286047002.8,N
1635721475.5,286047001.9,N
1635721495.3,286047000.6,N
1635721515.1,286046999.7,N
1635721535.9,286046999.7,N
1635721555.7,286046998.6,N
1635721575.5,286047000.4,N
1635721595.4,286047002.4,N
1635721615.2,286047002.6,N
1635721635.0,286047000.2,N
1635721635.9,286047000.2,N
1635721655.8,286047000.8,N
1635721675.6,286047000.9,N
1635721695.4,286046998.6,N
1635721715.3,286046998.4,N
1635721735.1,286047000.7,N
1635721755.9,286046998.5,N
1635721775.7,286047000.8,N
1635721795.5,286047000.9,N
1635721815.4,286046998.5,N
1635721835.2,286047000.9,N
1635721855.0,286047002.3,N
1635721855.9,286047002.3,N
1635721875.8,286047002.3,N
1635721895.6,286047002.3,N
1635721915.4,286047001.8,N
1635721935.3,286047004.0,N
1635721955.1,286047001.7,N
1635721956.0,286047001.7,N
1635721975.8,286047001.5,N
1635721995.7,286046999.9,N
1635722015.5,286047002.2,N
1635722035.3,286046999.9,N
1635722055.2,286047000.4,N
1635722075.9,286047000.3,N
1635722095.7,286047000.1,N
1635722115.6,286047001.0,N
1635722135.4,286046998.7,N
1635722155.2,286046998.1,N
1635722175.1,286047001.1,N
1635722176.0,286047001.1,N
1635722195.8,286046998.6,N
1635722215.6,286046996.8,N
1635722235.5,286046996.9,N
1635722255.3,286046999.3,N
1635722275.1,286046998.3,N
1635722295.9,286046998.4,N
1635722315.7,286046999.3,N
1635722335.5,286046996.7,N
1635722355.4,286046999.5,N
1635722375.2,286046999.6,N
1635722395.0,286046996.8,N
1635722395.9,286046996.8,N
1635722415.8,286046997.6,N
1635722435.6,286046996.3,N
1635722455.4,286046995.4,N
1635722475.3,286046996.1,N
1635722495.1,286046995.1,N
1635722496.0,286046995.1,N
1635722515.8,286046996.5,N
1635722535.7,286046996.7,N
1635722555.5,286046996.8,N
1635722575.3,286046996.8,N
1635722595.2,286046997.7,N
1635722615.9,286046995.4,N
1635722635.7,286046995.6,N
1635722655.6,286046996.3,N
1635722675.4,286046994.9,Y
1635722695.2,286046999.1,P
1635722715.1,286046999.0,N
1635722716.0,286046999.0,N
1635722735.8,286046998.5,N
1635722755.6,286046999.4,N
1635722775.5,286046998.4,N
1635722795.3,286046996.9,Y
1635722815.1,286046999.6,P
1635722835.9,286046998.4,P
1635722855.7,286046998.9,N
1635722875.5,286046998.8,N
1635722895.4,286046998.7,Y
1635722915.2,286047002.6,P
1635722935.0,286047002.0,N
1635722935.9,286047002.0,N
1635722955.8,286047000.6,N
1635722975.6,286047001.0,N
1635722995.4,286047000.9,N
1635723015.3,286046998.1,N
1635723035.1,286046996.5,N
1635723036.0,286046996.5,N
1635723055.8,286047000.5,N
1635723075.7,286047000.6,N
1635723095.5,286046998.3,N
1635723145.3,286047000.7,E
1635723155.3,286046999.1,N
1635723175.1,286046999.6,P
1635723176.0,286046999.6,N
1635723195.8,286046999.4,N
1635723215.7,286046999.6,N
1635723235.5,286046996.8,Y
1635723255.3,286046998.4,P
1635723275.2,286046998.3,P
1635723295.9,286047000.7,N
1635723315.7,286046998.9,N
1635723335.6,286046998.7,N
1635723355.4,286046996.6,Y
1635723375.2,286047000.8,P
1635723395.1,286047001.2,N
1635723396.0,286047001.2,N
1635723415.8,286047001.2,N
1635723435.6,286046998.4,N
1635723455.5,286046999.5,N
1635723475.3,286046999.1,N
1635723495.1,286046998.8,N
1635723515.9,286046999.2,N
1635723535.7,286046998.5,N
1635723555.5,286047001.2,N
1635723575.4,286046998.7,N
1635723595.2,286046998.5,N
1635723615.0,286046998.7,N
1635723615.9,286046998.7,N
1635723635.8,286046999.0,N
1635723655.6,286046998.7,N
1635723675.4,286046999.0,N
1635723695.3,286047001.0,N
1635723715.1,286046996.8,Y
1635723716.0,286046996.8,P
1635723735.8,286046997.0,N
1635723755.7,286047001.0,N
1635723775.5,286047001.2,N
1635723795.3,286047000.8,N
1635723815.2,286046998.4,N
1635723835.9,286046998.7,N
1635723855.7,286046998.8,N
1635723875.6,286046996.7,N
1635723895.4,286046998.9,N
1635723915.2,286046999.0,N
1635723935.1,286046999.2,N
1635723936.0,286046999.2,N
1635723955.8,286046997.8,N
1635723975.6,286046998.0,N
1635723995.5,286046995.2,Y
1635724015.3,286046997.0,P
1635724035.1,286046999.2,N
1635724055.9,286046999.2,N
1635724075.7,286047001.2,N
1635724095.5,286047000.7,N
1635724115.4,286046999.0,N
1635724135.2,286046996.6,N
1635724155.0,286046996.8,N
1635724155.9,286046996.8,N
1635724175.8,286046999.6,N
1635724195.6,286046999.4,N
1635724215.4,286046999.0,N
1635724235.3,286046999.5,N
1635724255.1,286046999.6,N
1635724256.0,286046999.6,N
1635724275.8,286046997.3,N
1635724295.7,286046996.6,N
1635724315.5,286046999.1,N
1635724335.3,286046999.5,N
1635724355.2,286046996.7,N
1635724375.9,286046997.2,N
1635724395.7,286046997.4,N
1635724415.6,286046997.2,N
1635724435.4,286046997.9,N
1635724455.2,286046995.2,Y
1635724475.1,286046996.9,P
1635724476.0,286046996.9,P
1635724495.8,286046997.3,P
1635724515.6,286046996.7,Y
1635724535.5,286047001.0,P
1635724555.3,286047001.2,N
1635724575.1,286046998.7,N
1635724595.9,286046999.5,N
1635724615.7,286047000.8,N
1635724635.5,286047002.5,N
1635724655.4,286046998.9,N
1635724675.2,286046998.2,N
1635724695.0,286046996.6,N
1635724695.9,286046996.6,N
1635724715.8,286046999.1,N
1635724735.6,286046996.6,N
1635724755.4,286046997.1,N
1635724775.3,286046996.8,N
1635724795.1,286046998.7,N
